x

9440910 - Toke Point, Wa (tokw1) Weather Station

8:30pm - Sun 21st Dec 2014 All times are PST. -8 hours from GMT.

  • Wind
    13mph, 15mph gusts
  • 空気 Temp 54°f
  • Sea Pressure 1020.1mb
  • 9440910 - Toke Point, Wa
  • 9440910 - Toke Point, Wa

More Historic Weather Station data

Upgrade to MSW Pro to gain access to the past 30 days of data for over 8000 Wavebouys and Weather Stations around the globe.

Join Pro

Comparision Forecast

View Surf forecast
   
Sun 12/21 8:30pm 13 15 mph 1020.1mb 54f
8:24pm 10 15 mph 1020.2mb 54f
8:18pm 11 16 mph 1020.2mb 53f
8:12pm 10 14 mph 1020.2mb 53f
8:06pm 9 13 mph 1020.3mb 53f
8:00pm 9 13 mph 1020.1mb 53f
7:54pm 9 11 mph 1019.9mb 53f
7:48pm 8 11 mph 1019.8mb 53f
7:42pm 8 11 mph 1019.7mb 53f
7:36pm 10 14 mph 1019.7mb 53f
7:30pm 9 13 mph 1019.4mb 53f
7:24pm 9 14 mph 1019.4mb 53f
7:18pm 9 11 mph 1019.6mb 53f
7:12pm 7 13 mph 1019.7mb 53f
7:06pm 9 11 mph 1019.6mb 53f
7:00pm 6 10 mph 1019.6mb 53f
6:54pm 6 10 mph 1019.5mb 53f
6:48pm 8 13 mph 1019.7mb 53f
6:42pm 9 13 mph 1019.8mb 53f
6:36pm 9 14 mph 1020.1mb 53f
6:30pm 10 14 mph 1020mb 53f
6:24pm 11 14 mph 1020.1mb 54f
6:18pm 11 15 mph 1020.1mb 54f
6:12pm 11 14 mph 1020.2mb 53f
6:06pm 9 14 mph 1020.1mb 53f
6:00pm 8 11 mph 1019.9mb 53f
5:54pm 8 11 mph 1019.7mb 53f
5:48pm 9 13 mph 1019.9mb 53f
5:42pm 9 11 mph 1019.9mb 53f
5:36pm 9 13 mph 1019.7mb 54f
5:30pm 11 15 mph 1019.6mb 54f
5:24pm 10 14 mph 1019.9mb 53f
5:18pm 9 11 mph 1019.8mb 53f
5:12pm 7 13 mph 1019.6mb 53f
5:00pm 8 10 mph 1019mb 54f
4:54pm 8 10 mph 1018.7mb 54f
4:48pm 8 11 mph 1019mb 54f
4:36pm 10 14 mph 1019.4mb 54f
4:30pm 9 11 mph 1019.2mb 54f
4:24pm 9 11 mph 1019.4mb 54f
4:18pm 8 11 mph 1019.2mb 54f
4:12pm 7 9 mph 1019.1mb 54f
4:06pm 6 9 mph 1019.2mb 54f
4:00pm 8 10 mph 1019.1mb 54f
3:54pm 7 10 mph 1018.8mb 54f
3:48pm 8 11 mph 1018.9mb 54f
3:42pm 9 11 mph 1018.7mb 54f
3:36pm 8 13 mph 1018.5mb 54f
3:30pm 10 14 mph 1018.6mb 54f
3:24pm 11 14 mph 1018.5mb 54f
3:18pm 9 14 mph 1018.5mb 54f
3:12pm 11 17 mph 1018.4mb 54f
3:06pm 14 17 mph 1018.5mb 54f
3:00pm 14 16 mph 1018.4mb 54f
2:54pm 14 20 mph 1018.3mb 54f
2:48pm 11 18 mph 1018.2mb 54f
2:42pm 15 21 mph 1018.4mb 54f
2:36pm 16 21 mph 1018.3mb 54f
2:30pm 15 18 mph 1017.9mb 54f
2:24pm 13 16 mph 1017.6mb 54f
2:18pm 13 17 mph 1017.6mb 54f
2:00pm 13 17 mph 1017.6mb 54f
1:54pm 14 17 mph 1017.5mb 55f
1:48pm 15 21 mph 1017.6mb 55f
1:42pm 16 20 mph 1017.6mb 55f
1:36pm 15 17 mph 1017.7mb 55f
1:30pm 11 18 mph 1017.6mb 55f
1:24pm 13 16 mph 1017.6mb 55f
1:18pm 14 16 mph 1017.6mb 55f
1:12pm 11 17 mph 1017.4mb 55f
1:06pm 15 20 mph 1017.5mb 55f
1:00pm 15 22 mph 1017.7mb 55f
12:54pm 15 20 mph 1017.5mb 55f
12:48pm 14 17 mph 1016.9mb 55f
12:42pm 7 14 mph 1016.6mb 55f
12:36pm 7 15 mph 1016.8mb 55f
12:30pm 7 11 mph 1016.9mb 55f
12:24pm 2 8 mph 1016.6mb 55f
12:18pm 5 13 mph 1016.9mb 55f
12:12pm 7 13 mph 1017mb 55f
12:06pm 7 16 mph 1016.9mb 55f
12:00pm 10 15 mph 1017.1mb 55f
11:54am 11 16 mph 1017.2mb 55f
11:48am 10 16 mph 1017.1mb 55f
11:42am 9 15 mph 1017mb 55f
11:30am 6 10 mph 1016.6mb 55f
11:24am 6 13 mph 1016.3mb 55f
11:18am 8 13 mph 1016.6mb 55f
11:12am 9 15 mph 1016.5mb 55f
11:06am 10 14 mph 1016.4mb 55f
11:00am 10 15 mph 1016.3mb 55f
10:54am 11 14 mph 1016.3mb 55f
10:48am 10 16 mph 1016.1mb 55f
10:42am 13 17 mph 1016.1mb 55f
10:36am 13 18 mph 1016.4mb 54f
10:30am 15 20 mph 1016.6mb 55f
10:24am 16 18 mph 1016.3mb 55f
10:18am 14 22 mph 1016mb 55f
10:12am 14 18 mph 1016.3mb 55f
10:06am 11 17 mph 1016mb 54f
10:00am 13 20 mph 1016.1mb 55f
9:54am 14 20 mph 1015.9mb 54f
9:48am 11 15 mph 1015.8mb 54f
9:42am 14 20 mph 1015.5mb 54f
9:36am 14 18 mph 1015.4mb 55f
9:30am 13 18 mph 1015.3mb 54f
9:24am 15 21 mph 1015.7mb 54f
9:12am 14 21 mph 1015.7mb 54f
9:06am 15 23 mph 1015.5mb 55f
9:00am 14 20 mph 1015.3mb 54f
8:54am 15 20 mph 1015.2mb 54f
8:48am 13 18 mph 1014.9mb 54f
8:42am 13 18 mph 1014.5mb 54f
8:36am 14 17 mph 1014.4mb 54f
8:30am 11 17 mph 1014.3mb 54f
8:24am 15 20 mph 1014.5mb 54f
8:18am 15 18 mph 1014.3mb 54f
8:12am 16 18 mph 1013.9mb 54f
8:00am 13 16 mph 1013.5mb 54f
7:54am 14 17 mph 1013.4mb 54f
7:48am 14 20 mph 1013.5mb 54f
7:42am 11 21 mph 1013.3mb 54f
7:36am 11 18 mph 1013.6mb 54f
7:30am 14 17 mph 1013.5mb 54f
7:24am 14 20 mph 1013.5mb 54f
7:18am 14 17 mph 1013.2mb 54f
7:12am 15 18 mph 1012.8mb 54f
7:06am 13 17 mph 1012.8mb 54f
7:00am 14 18 mph 1012.6mb 54f
6:54am 13 18 mph 1012.5mb 54f
6:48am 15 20 mph 1012.2mb 54f
6:30am 14 22 mph 1012.2mb 54f
6:24am 16 21 mph 1012.1mb 54f
6:18am 15 20 mph 1012.1mb 54f
6:12am 16 21 mph 1012.2mb 54f
6:06am 16 21 mph 1012mb 54f
6:00am 17 22 mph 1011.9mb 54f
5:54am 17 23 mph 1011.7mb 54f
5:48am 16 22 mph 1011.2mb 54f
5:42am 16 24 mph 1011.4mb 54f
5:36am 15 24 mph 1011.6mb 54f
5:30am 9 16 mph 1011.2mb 54f
5:24am 10 18 mph 1011.1mb 54f
5:18am 11 17 mph 1011mb 54f
5:12am 11 16 mph 1011.1mb 54f
5:06am 5 14 mph 1010.8mb 54f
5:00am 7 15 mph 1010.9mb 54f
4:54am 6 15 mph 1011mb 54f
4:48am 8 14 mph 1010.9mb 54f
4:42am 11 17 mph 1010.7mb 54f
4:36am 14 18 mph 1010.6mb 54f
4:30am 10 17 mph 1010.6mb 54f
4:24am 11 16 mph 1010.7mb 54f
4:18am 10 16 mph 1010.6mb 54f
4:12am 7 14 mph 1010.5mb 54f
4:06am 8 16 mph 1010.4mb 54f
4:00am 13 17 mph 1010.5mb 54f
3:54am 14 20 mph 1010.6mb 54f
3:48am 13 17 mph 1010.5mb 54f
3:42am 13 16 mph 1010.4mb 54f
3:30am 11 17 mph 1010.1mb 54f
3:24am 14 18 mph 1010.3mb 54f
3:18am 14 20 mph 1010.2mb 54f
3:12am 14 22 mph 1009.9mb 54f
3:06am 14 20 mph 1009.9mb 54f
3:00am 15 21 mph 1009.8mb 54f
2:54am 14 20 mph 1009.8mb 54f
2:48am 13 16 mph 1009.7mb 54f
2:42am 14 18 mph 1009.5mb 54f
2:36am 11 18 mph 1009.2mb 54f
2:30am 10 17 mph 1008.9mb 54f
2:24am 11 16 mph 1008.8mb 54f
2:18am 15 21 mph 1008.9mb 54f
2:12am 14 21 mph 1009.1mb 54f
2:06am 14 17 mph 1008.9mb 54f
2:00am 15 20 mph 1008.5mb 54f
1:54am 16 22 mph 1007.9mb 54f
1:48am 16 21 mph 1008.2mb 54f
1:36am 17 22 mph 1007.8mb 54f
1:30am 16 22 mph 1007.3mb 54f
1:24am 17 24 mph 1007.6mb 55f
1:18am 17 25 mph 1007.8mb 54f
1:12am 17 23 mph 1007.6mb 55f
1:06am 20 25 mph 1007.2mb 55f
1:00am 16 24 mph 1007mb 55f
12:54am 20 25 mph 1006.8mb 55f
12:48am 20 26 mph 1006.4mb 55f
12:42am 20 30 mph 1006.7mb 55f
12:36am 21 28 mph 1007.2mb 55f
12:30am 21 29 mph 1007mb 55f
12:24am 22 28 mph 1006.6mb 55f
12:18am 21 28 mph 1006.1mb 55f
12:12am 21 26 mph 1006.2mb 55f
12:06am 21 29 mph 1005.6mb 55f
12:00am 21 26 mph 1005.1mb 55f
Sat 12/20 11:54pm 24 30 mph 1005.1mb 55f
11:48pm 20 29 mph 1004.9mb 55f
11:42pm 21 26 mph 1004.3mb 55f
11:36pm 18 29 mph 1003.9mb 55f
11:30pm 13 26 mph 1003.5mb 55f
11:24pm 20 30 mph 1003.8mb 55f
11:18pm 15 24 mph 1003.6mb 55f
11:12pm 16 26 mph 1003.8mb 55f
11:06pm 14 23 mph 1003.3mb 55f
11:00pm 18 25 mph 1003.5mb 54f
10:54pm 18 25 mph 1003.4mb 54f
10:48pm 20 28 mph 1003.5mb 55f
10:42pm 18 26 mph 1003.4mb 55f
10:36pm 9 22 mph 1002.9mb 55f
10:30pm 6 15 mph 1003mb 55f
10:24pm 5 11 mph 1002.8mb 55f
10:18pm 5 10 mph 1002.6mb 55f
10:12pm 3 14 mph 1002.7mb 55f
10:06pm 6 16 mph 1002.8mb 55f
10:00pm 6 23 mph 1002.1mb 55f
9:54pm 18 26 mph 1003.1mb 55f
9:48pm 11 22 mph 1003mb 55f
9:42pm 14 24 mph 1002.9mb 55f
9:36pm 17 24 mph 1002.8mb 55f
9:30pm 10 21 mph 1002.3mb 55f
9:24pm 10 22 mph 1002.1mb 55f
9:18pm 15 26 mph 1001.9mb 55f
9:12pm 17 26 mph 1001.9mb 55f
9:06pm 8 16 mph 1001.8mb 55f
9:00pm 8 25 mph 1001.5mb 55f
8:54pm 9 17 mph 1001.8mb 55f
8:48pm 9 22 mph 1002.1mb 55f
8:42pm 5 13 mph 1001.7mb 55f
8:36pm 5 11 mph 1001.7mb 54f
8:30pm 5 11 mph 1001.7mb 54f
8:24pm 5 15 mph 1001.8mb 54f
8:18pm 5 9 mph 1001.5mb 54f
8:12pm 3 9 mph 1001.4mb 54f
8:06pm 5 10 mph 1001.4mb 54f
8:00pm 5 14 mph 1001.3mb 54f
7:54pm 5 9 mph 1001.3mb 54f
7:48pm 6 13 mph 1001.2mb 54f
7:42pm 5 14 mph 1001.3mb 54f
7:36pm 6 10 mph 1001.4mb 55f
7:30pm 6 16 mph 1001.3mb 55f
7:24pm 6 14 mph 1001.3mb 55f
7:18pm 5 17 mph 1001.1mb 55f
7:12pm 6 16 mph 1001mb 55f
7:06pm 6 14 mph 1001.2mb 55f
7:00pm 5 14 mph 1001mb 55f
6:54pm 6 17 mph 1000.9mb 55f
6:48pm 5 13 mph 1000.8mb 55f
6:42pm 5 17 mph 1000.7mb 55f
6:36pm 6 14 mph 1000.5mb 55f
6:30pm 5 15 mph 1000.5mb 55f
6:24pm 6 14 mph 1000.6mb 55f
6:18pm 6 11 mph 1000.3mb 55f
6:12pm 5 10 mph 1000mb 55f
6:06pm 5 17 mph 1000.3mb 55f
6:00pm 8 17 mph 1000.5mb 55f
5:54pm 8 16 mph 1000.5mb 55f
5:48pm 9 18 mph 1000.5mb 55f
5:42pm 9 17 mph 1000.4mb 55f
5:36pm 8 18 mph 1000.5mb 55f
5:30pm 6 13 mph 1000.3mb 55f
5:24pm 6 11 mph 1000.1mb 55f
5:18pm 5 15 mph 1000.1mb 55f
5:12pm 7 23 mph 1000.4mb 55f
5:06pm 7 18 mph 1000.4mb 55f
5:00pm 8 18 mph 1000.3mb 55f
4:54pm 6 16 mph 1000.2mb 55f
4:48pm 5 11 mph 999.8mb 55f
4:42pm 6 16 mph 999.4mb 55f
4:36pm 6 14 mph 999.1mb 55f
4:30pm 5 22 mph 999.2mb 55f
4:24pm 8 17 mph 998.9mb 55f
4:18pm 6 15 mph 998.9mb 55f
4:12pm 7 23 mph 998.8mb 55f
4:06pm 8 20 mph 998.6mb 55f
4:00pm 3 11 mph 998.8mb 55f
3:54pm 7 17 mph 998.9mb 55f
3:48pm 9 20 mph 998.8mb 55f
3:42pm 10 20 mph 998.7mb 55f
3:36pm 8 21 mph 999.1mb 55f
3:30pm 6 15 mph 999.4mb 55f
3:24pm 5 18 mph 999.3mb 55f
3:18pm 7 20 mph 999.1mb 55f
3:12pm 7 22 mph 999mb 55f
3:06pm 7 15 mph 998.9mb 55f
2:54pm 6 25 mph 999mb 55f
2:48pm 10 18 mph 998.9mb 55f
2:42pm 9 21 mph 999mb 55f
2:36pm 8 18 mph 998.9mb 55f
2:30pm 10 23 mph 998.8mb 55f
2:24pm 9 22 mph 998.8mb 55f
2:18pm 10 24 mph 998.7mb 55f
2:06pm 14 25 mph 998.6mb 55f
2:00pm 13 22 mph 998.6mb 55f
1:54pm 10 22 mph 998.7mb 55f
1:48pm 14 23 mph 998.8mb 55f
1:42pm 14 23 mph 998.9mb 55f
1:36pm 11 22 mph 999.2mb 55f
1:30pm 11 23 mph 999.5mb 55f
1:24pm 11 20 mph 999.5mb 55f
1:18pm 14 22 mph 999.5mb 55f
1:12pm 14 21 mph 999.5mb 55f
1:06pm 16 24 mph 999.6mb 55f
1:00pm 15 22 mph 999.7mb 55f
12:54pm 15 21 mph 999.7mb 55f
12:48pm 14 22 mph 1000mb 55f
12:42pm 14 21 mph 999.7mb 55f
12:36pm 14 22 mph 999.2mb 55f
12:30pm 14 22 mph 999.5mb 55f
12:24pm 15 22 mph 999.6mb 55f
12:18pm 15 21 mph 999.8mb 55f
12:12pm 16 22 mph 999.9mb 55f
12:06pm 17 25 mph 999.9mb 55f
12:00pm 15 21 mph 1000.1mb 55f
11:54am 15 22 mph 1000.2mb 55f
11:42am 15 22 mph 1000.2mb 55f
11:36am 15 21 mph 1000.3mb 55f
11:24am 16 22 mph 1000.6mb 54f
11:18am 16 20 mph 1000.6mb 51f
11:12am 14 16 mph 1000.5mb 51f
11:06am 15 18 mph 1000.5mb 51f
11:00am 13 16 mph 1000.5mb 51f
10:54am 15 17 mph 1000.6mb 51f
10:48am 15 18 mph 1000.9mb 51f
10:42am 15 20 mph 1001.1mb 51f
10:36am 18 22 mph 1001mb 52f
10:30am 17 21 mph 1001.1mb 51f
10:24am 18 22 mph 1001.2mb 51f
10:18am 21 28 mph 1001.2mb 51f
10:12am 22 25 mph 1001.2mb 51f
10:06am 16 23 mph 1001.3mb 50f
10:00am 20 22 mph 1001.1mb 50f
9:54am 20 22 mph 1001.1mb 50f
9:48am 21 22 mph 1001mb 50f
9:42am 18 22 mph 1001mb 50f
9:36am 20 22 mph 1001mb 50f
9:30am 17 22 mph 1000.9mb 50f
9:24am 20 23 mph 1000.8mb 49f
9:18am 20 22 mph 1000.8mb 49f
9:06am 18 22 mph 1000.8mb 49f
9:00am 18 22 mph 1000.7mb 49f
8:54am 21 24 mph 1000.6mb 49f
8:48am 18 23 mph 1000.6mb 49f
8:42am 20 22 mph 1000.6mb 49f
8:36am 16 23 mph 1000.6mb 49f
8:30am 21 22 mph 1000.5mb 49f
8:24am 20 22 mph 1000.8mb 49f
8:18am 20 24 mph 1000.6mb 49f
8:12am 20 22 mph 1000.5mb 48f
8:06am 15 25 mph 1000.8mb 48f
8:00am 22 26 mph 1000.6mb 48f
7:54am 21 24 mph 1000.7mb 48f
7:48am 20 23 mph 1000.8mb 48f
7:42am 20 23 mph 1000.9mb 48f
7:36am 16 22 mph 1001.1mb 48f
7:30am 20 28 mph 1001.2mb 48f
7:24am 24 29 mph 1001.1mb 47f
7:18am 18 24 mph 1001.3mb 48f
7:12am 22 25 mph 1001.3mb 47f
7:06am 22 25 mph 1001.2mb 47f
7:00am 22 26 mph 1001.2mb 47f
6:54am 22 25 mph 1001.2mb 48f
6:48am 20 24 mph 1001.3mb 47f
6:42am 21 24 mph 1001.4mb 48f
6:36am 22 26 mph 1001.4mb 48f
6:30am 23 30 mph 1001.4mb 48f
6:24am 22 28 mph 1001.5mb 48f
6:18am 24 28 mph 1001.4mb 48f
6:12am 23 26 mph 1001.4mb 48f
6:06am 22 23 mph 1001.3mb 48f
6:00am 21 25 mph 1001.3mb 48f
5:54am 21 24 mph 1001.4mb 48f
5:48am 21 26 mph 1001.4mb 48f
5:42am 22 28 mph 1001.5mb 48f
5:36am 21 28 mph 1001.5mb 48f
5:30am 18 24 mph 1001.6mb 48f
5:24am 18 29 mph 1001.6mb 48f
5:18am 21 25 mph 1001.6mb 48f
5:12am 20 25 mph 1001.6mb 48f
5:06am 20 28 mph 1001.7mb 49f
5:00am 17 26 mph 1001.9mb 49f
4:54am 23 26 mph 1001.9mb 49f
4:48am 18 23 mph 1002.2mb 49f
4:42am 20 23 mph 1002.3mb 49f
4:36am 18 28 mph 1002.4mb 49f
4:30am 21 24 mph 1002.6mb 49f
4:24am 21 25 mph 1002.8mb 49f
4:18am 18 23 mph 1003.1mb 49f
4:12am 18 24 mph 1003.4mb 49f
4:06am 18 24 mph 1003.6mb 49f
4:00am 18 23 mph 1003.8mb 49f
3:54am 18 24 mph 1004mb 49f
3:48am 21 24 mph 1004.2mb 49f
3:42am 20 23 mph 1004.4mb 48f
3:36am 18 23 mph 1004.6mb 48f
3:30am 20 24 mph 1004.9mb 48f
3:24am 17 22 mph 1005.2mb 48f
3:18am 20 23 mph 1005.2mb 48f
3:12am 21 23 mph 1005.2mb 48f
3:06am 21 24 mph 1005.4mb 48f
3:00am 20 24 mph 1005.5mb 48f
2:54am 22 24 mph 1005.6mb 48f
2:48am 21 25 mph 1005.7mb 48f
2:42am 21 24 mph 1005.8mb 48f
2:36am 21 25 mph 1005.8mb 48f
2:30am 21 24 mph 1005.8mb 48f
2:24am 22 24 mph 1005.8mb 48f
2:18am 17 22 mph 1006mb 49f
2:12am 18 23 mph 1005.9mb 48f
2:06am 22 25 mph 1005.9mb 49f
2:00am 20 24 mph 1005.9mb 49f
1:54am 18 23 mph 1006.1mb 49f
1:48am 21 24 mph 1006.2mb 48f
1:42am 18 23 mph 1006.4mb 48f
1:36am 20 24 mph 1006.5mb 49f
1:30am 21 26 mph 1006.6mb 48f
1:24am 22 25 mph 1006.8mb 48f
1:18am 22 26 mph 1006.9mb 48f
1:12am 22 26 mph 1007mb 49f
1:06am 18 24 mph 1007.3mb 49f
1:00am 16 23 mph 1007.3mb 48f
12:54am 20 25 mph 1007.4mb 49f
12:48am 20 24 mph 1007.5mb 48f
12:42am 18 21 mph 1007.8mb 48f
12:36am 18 22 mph 1007.9mb 48f
12:30am 20 23 mph 1008.1mb 48f
12:24am 21 24 mph 1008.2mb 48f
12:18am 18 23 mph 1008.3mb 48f
12:12am 18 22 mph 1008.5mb 48f
12:06am 18 23 mph 1008.7mb 48f
12:00am 18 23 mph 1008.9mb 48f
Fri 12/19 11:54pm 20 23 mph 1009mb 48f
11:48pm 18 23 mph 1009.1mb 49f
11:42pm 20 24 mph 1009.1mb 49f
11:36pm 20 23 mph 1009.1mb 48f
11:30pm 20 22 mph 1009.1mb 48f
11:24pm 20 23 mph 1009.3mb 48f
11:18pm 18 23 mph 1009.4mb 48f
11:12pm 20 24 mph 1009.5mb 48f
11:06pm 20 24 mph 1009.6mb 49f
11:00pm 17 20 mph 1009.4mb 49f
10:54pm 15 21 mph 1009.7mb 49f
10:48pm 17 20 mph 1009.7mb 49f
10:42pm 16 18 mph 1009.7mb 49f
10:36pm 14 16 mph 1009.9mb 49f
10:30pm 14 16 mph 1010.2mb 49f
10:24pm 13 15 mph 1010.1mb 49f
10:18pm 13 15 mph 1010mb 49f
10:12pm 11 14 mph 1010.1mb 48f
10:06pm 14 17 mph 1010.3mb 48f
10:00pm 16 18 mph 1010.4mb 48f
9:54pm 17 22 mph 1010.6mb 48f
9:48pm 18 23 mph 1010.7mb 49f
9:42pm 17 22 mph 1010.6mb 49f
9:36pm 16 20 mph 1010.5mb 50f
9:30pm 15 20 mph 1010.3mb 50f
9:24pm 14 17 mph 1010.3mb 50f
9:18pm 11 17 mph 1010.4mb 49f
9:12pm 15 16 mph 1010.5mb 49f
9:06pm 10 14 mph 1010.5mb 49f
9:00pm 11 14 mph 1010.5mb 48f
8:54pm 11 14 mph 1010.6mb 48f
8:48pm 13 14 mph 1010.7mb 48f
8:42pm 11 14 mph 1010.8mb 48f
8:36pm 11 14 mph 1011mb 48f
8:30pm 11 14 mph 1011.2mb 47f
8:24pm 11 14 mph 1011.4mb 48f
8:18pm 11 14 mph 1011.5mb 47f
8:12pm 10 13 mph 1011.5mb 48f
8:06pm 13 14 mph 1011.6mb 47f
8:00pm 11 13 mph 1011.8mb 47f
7:54pm 11 13 mph 1012mb 47f
7:48pm 10 11 mph 1012.2mb 47f
7:42pm 10 13 mph 1012.2mb 48f
7:36pm 9 11 mph 1012.3mb 48f
7:30pm 11 16 mph 1012.3mb 49f
7:24pm 13 16 mph 1012.3mb 49f
7:18pm 15 17 mph 1012.3mb 49f
7:12pm 14 18 mph 1012.3mb 49f
7:06pm 15 16 mph 1012.4mb 48f
7:00pm 15 18 mph 1012.7mb 48f
6:54pm 16 20 mph 1012.6mb 48f
6:48pm 16 20 mph 1012.5mb 48f
6:42pm 16 18 mph 1012.6mb 49f
6:36pm 16 17 mph 1012.6mb 49f
6:30pm 15 18 mph 1012.7mb 49f
6:24pm 15 17 mph 1012.8mb 48f
6:18pm 14 17 mph 1013mb 48f
6:12pm 14 16 mph 1013.1mb 48f
6:00pm 13 15 mph 1013.1mb 48f
5:54pm 14 17 mph 1013.1mb 48f
5:48pm 15 17 mph 1013.1mb 49f
5:42pm 13 16 mph 1013.2mb 49f
5:36pm 13 16 mph 1013.3mb 48f
5:30pm 14 16 mph 1013.5mb 48f
5:24pm 13 14 mph 1013.3mb 49f
5:18pm 11 13 mph 1013.3mb 49f
5:12pm 11 13 mph 1013.4mb 48f
5:06pm 10 14 mph 1013.5mb 48f
5:00pm 13 16 mph 1013.5mb 49f
4:54pm 13 16 mph 1013.4mb 49f
4:48pm 14 15 mph 1013.4mb 49f
4:42pm 11 15 mph 1013.4mb 49f
4:36pm 10 11 mph 1013.3mb 49f
4:30pm 10 14 mph 1013.2mb 49f
4:24pm 11 14 mph 1013mb 49f
4:18pm 14 23 mph 1012.9mb 48f
4:12pm 17 23 mph 1012.9mb 48f
4:06pm 14 18 mph 1012.9mb 49f
4:00pm 15 20 mph 1012.9mb 49f
3:54pm 15 20 mph 1013mb 49f
3:48pm 17 20 mph 1013mb 49f
3:42pm 16 20 mph 1013.1mb 49f
3:36pm 16 21 mph 1013.1mb 49f
3:30pm 16 18 mph 1013.1mb 49f
3:24pm 15 17 mph 1013.2mb 49f
3:18pm 14 18 mph 1013.1mb 49f
3:12pm 15 18 mph 1013.3mb 49f
3:06pm 17 20 mph 1013.4mb 49f
3:00pm 17 21 mph 1013.5mb 49f
2:54pm 18 22 mph 1013.5mb 49f
2:48pm 18 20 mph 1013.5mb 49f
2:42pm 15 18 mph 1013.5mb 49f
2:36pm 16 18 mph 1013.4mb 49f
2:30pm 16 20 mph 1013.3mb 49f
2:24pm 16 20 mph 1013.4mb 49f
2:12pm 15 17 mph 1013.4mb 49f
2:06pm 17 21 mph 1013.4mb 49f
2:00pm 18 22 mph 1013.4mb 49f
1:54pm 17 21 mph 1013.4mb 49f
1:48pm 18 21 mph 1013.5mb 49f
1:42pm 17 21 mph 1013.6mb 49f
1:36pm 17 21 mph 1013.6mb 49f
1:30pm 18 22 mph 1013.6mb 49f
1:24pm 18 22 mph 1013.6mb 49f
1:18pm 21 25 mph 1013.5mb 49f
1:12pm 20 23 mph 1013.5mb 49f
1:06pm 22 26 mph 1013.6mb 49f
1:00pm 23 30 mph 1013.7mb 49f
12:54pm 24 29 mph 1013.6mb 49f
12:48pm 20 24 mph 1013.5mb 49f
12:42pm 20 24 mph 1013.4mb 49f
12:36pm 17 22 mph 1013.6mb 49f
12:30pm 18 21 mph 1013.6mb 49f
12:24pm 17 21 mph 1013.5mb 48f
12:18pm 16 22 mph 1013.7mb 49f
12:12pm 18 22 mph 1013.7mb 49f
12:06pm 16 20 mph 1013.8mb 49f
12:00pm 17 21 mph 1013.8mb 49f
11:54am 18 22 mph 1013.7mb 49f
11:48am 17 22 mph 1013.7mb 49f
11:42am 20 24 mph 1013.8mb 49f
11:36am 20 29 mph 1013.8mb 49f
11:30am 21 24 mph 1013.8mb 49f
11:24am 18 21 mph 1013.8mb 49f
11:18am 13 23 mph 1013.8mb 49f
11:12am 20 26 mph 1013.6mb 49f
11:06am 20 22 mph 1013.7mb 49f
11:00am 16 20 mph 1013.8mb 49f
10:54am 16 18 mph 1013.8mb 49f
10:48am 15 17 mph 1013.8mb 49f
10:42am 17 20 mph 1013.7mb 49f
10:36am 16 20 mph 1013.8mb 49f
10:30am 17 20 mph 1013.8mb 48f
10:24am 17 20 mph 1013.6mb 48f
10:18am 16 18 mph 1013.5mb 48f
10:12am 14 17 mph 1013.4mb 48f
10:06am 15 18 mph 1013.2mb 48f
10:00am 15 16 mph 1013.1mb 48f
9:54am 14 17 mph 1013.2mb 48f
9:48am 15 17 mph 1013.1mb 48f
9:42am 14 17 mph 1013mb 47f
9:36am 14 16 mph 1013mb 48f
9:24am 17 18 mph 1012.9mb 48f
9:18am 17 21 mph 1012.8mb 48f
9:12am 17 20 mph 1012.8mb 48f
9:06am 17 18 mph 1012.7mb 48f
9:00am 16 17 mph 1012.6mb 48f
8:54am 14 16 mph 1012.5mb 48f
8:48am 13 17 mph 1012.3mb 49f
8:42am 14 16 mph 1012.3mb 49f
8:36am 14 20 mph 1012.2mb 50f
8:30am 13 16 mph 1012.1mb 49f
8:24am 13 21 mph 1012mb 49f
8:18am 13 18 mph 1012mb 51f
8:12am 6 16 mph 1011.9mb 50f
8:06am 10 16 mph 1011.9mb 50f
8:00am 8 13 mph 1011.8mb 50f
7:54am 10 14 mph 1011.7mb 49f
7:48am 11 15 mph 1011.6mb 49f
7:42am 9 14 mph 1011.5mb 51f
7:36am 8 16 mph 1011.4mb 51f
7:30am 11 14 mph 1011.4mb 49f
7:24am 11 15 mph 1011.3mb 49f
7:18am 10 14 mph 1011.3mb 49f
7:12am 14 16 mph 1011.1mb 49f
7:06am 10 14 mph 1011.1mb 49f
7:00am 13 14 mph 1011mb 49f
6:54am 13 20 mph 1010.9mb 49f
6:48am 13 16 mph 1010.8mb 49f
6:42am 13 22 mph 1010.8mb 49f
6:36am 15 18 mph 1010.7mb 48f
6:30am 14 17 mph 1010.7mb 49f
6:24am 16 20 mph 1010.6mb 49f
6:18am 15 18 mph 1010.5mb 49f
6:12am 14 17 mph 1010.5mb 48f
6:06am 15 18 mph 1010.5mb 48f
6:00am 15 18 mph 1010.4mb 48f
5:54am 15 21 mph 1010.3mb 48f
5:48am 17 21 mph 1010.3mb 48f
5:42am 15 18 mph 1010.3mb 48f
5:36am 15 17 mph 1010.3mb 48f
5:30am 16 18 mph 1010.2mb 48f
5:24am 15 18 mph 1010.2mb 48f
5:18am 15 18 mph 1010.1mb 48f
5:12am 16 21 mph 1010.1mb 48f
5:06am 17 23 mph 1010.1mb 48f
5:00am 20 23 mph 1010.1mb 49f
4:54am 16 24 mph 1010mb 49f
4:48am 13 16 mph 1009.8mb 49f
4:42am 11 17 mph 1009.8mb 48f
4:36am 16 20 mph 1009.7mb 48f
4:30am 18 21 mph 1009.5mb 49f
4:24am 17 22 mph 1009.5mb 49f
4:18am 21 24 mph 1009.4mb 49f
4:12am 20 23 mph 1009.4mb 49f
4:06am 17 21 mph 1009.5mb 49f
4:00am 18 20 mph 1009.5mb 49f
3:54am 18 23 mph 1009.5mb 49f
3:48am 21 23 mph 1009.5mb 49f
3:42am 16 20 mph 1009.6mb 49f
3:36am 16 18 mph 1009.6mb 49f
3:30am 17 21 mph 1009.5mb 49f
3:24am 17 22 mph 1009.3mb 49f
3:18am 18 22 mph 1009.2mb 49f
3:12am 14 16 mph 1009.3mb 49f
3:06am 14 17 mph 1009.4mb 49f
3:00am 16 18 mph 1009.4mb 49f
2:54am 16 20 mph 1009.3mb 50f
2:48am 17 22 mph 1009.3mb 50f
2:42am 18 23 mph 1009.4mb 50f
2:36am 20 23 mph 1009.5mb 50f
2:30am 20 23 mph 1009.4mb 50f
2:24am 18 22 mph 1009.4mb 50f
2:18am 17 22 mph 1009.3mb 49f
2:12am 18 23 mph 1009.2mb 49f
2:06am 22 25 mph 1008.9mb 49f
2:00am 21 28 mph 1008.9mb 49f
1:54am 22 25 mph 1008.8mb 49f
1:48am 20 23 mph 1008.8mb 50f
1:42am 15 18 mph 1008.9mb 49f
1:36am 16 22 mph 1008.8mb 50f
1:30am 17 25 mph 1008.8mb 50f
1:24am 20 25 mph 1008.7mb 50f
1:18am 16 18 mph 1008.7mb 50f
1:12am 15 21 mph 1008.7mb 50f
1:06am 15 18 mph 1008.6mb 50f
1:00am 16 20 mph 1008.6mb 50f
12:54am 15 17 mph 1008.6mb 50f
12:48am 14 17 mph 1008.6mb 50f
12:42am 10 16 mph 1008.5mb 50f
12:36am 5 21 mph 1008.5mb 50f
12:30am 14 18 mph 1008.5mb 49f
12:24am 15 22 mph 1008.5mb 49f
12:18am 15 18 mph 1008.3mb 50f
12:12am 15 17 mph 1008mb 50f
12:06am 13 17 mph 1008.1mb 50f
12:00am 14 17 mph 1008.1mb 50f
Thu 12/18 11:54pm 13 18 mph 1008.1mb 50f
11:48pm 15 17 mph 1008.1mb 50f
11:42pm 8 15 mph 1008.2mb 50f
11:36pm 15 18 mph 1008.1mb 50f
11:30pm 15 23 mph 1008.1mb 50f
11:24pm 11 16 mph 1008.1mb 50f
11:18pm 11 15 mph 1007.8mb 50f
11:12pm 14 21 mph 1007.8mb 49f
11:06pm 20 25 mph 1007.8mb 50f
11:00pm 21 26 mph 1007.9mb 50f
10:54pm 21 22 mph 1007.8mb 50f
10:48pm 11 15 mph 1007.7mb 50f
10:42pm 14 15 mph 1007.6mb 50f
10:36pm 11 14 mph 1007.5mb 50f
10:30pm 11 14 mph 1007.4mb 50f
10:24pm 10 13 mph 1007.4mb 50f
10:18pm 11 14 mph 1007.3mb 50f
10:12pm 13 14 mph 1007.2mb 50f
10:06pm 14 16 mph 1007.1mb 50f
10:00pm 14 17 mph 1007.2mb 50f
9:54pm 16 18 mph 1007.2mb 50f
9:48pm 16 18 mph 1007.2mb 50f
9:42pm 17 22 mph 1007.3mb 50f
9:36pm 18 22 mph 1007.1mb 50f
9:30pm 18 23 mph 1007.1mb 50f
9:24pm 21 24 mph 1007mb 50f
9:18pm 18 21 mph 1006.9mb 50f
9:12pm 17 18 mph 1007.1mb 50f
9:06pm 16 20 mph 1007mb 50f
9:00pm 16 20 mph 1006.9mb 50f
8:54pm 17 18 mph 1007mb 50f
8:48pm 16 20 mph 1006.7mb 50f
8:42pm 16 18 mph 1006.7mb 50f
8:36pm 16 18 mph 1006.9mb 49f
8:30pm 16 18 mph 1006.6mb 50f
8:24pm 14 17 mph 1006.7mb 50f
8:18pm 14 16 mph 1006.6mb 50f
8:12pm 14 16 mph 1006.7mb 49f
8:06pm 10 13 mph 1006.3mb 50f
8:00pm 10 14 mph 1006.5mb 50f
7:54pm 10 14 mph 1006.5mb 50f
7:48pm 8 11 mph 1006.3mb 50f
7:42pm 6 8 mph 1006mb 50f
7:36pm 6 9 mph 1005.9mb 50f
7:30pm 5 10 mph 1005.9mb 50f
7:24pm 7 15 mph 1005.8mb 50f
7:18pm 9 20 mph 1005.9mb 50f
7:12pm 15 21 mph 1005.8mb 50f
7:06pm 13 17 mph 1005.6mb 49f
7:00pm 15 20 mph 1005.6mb 49f
6:54pm 15 18 mph 1005.7mb 50f
6:48pm 16 20 mph 1005.2mb 50f
6:42pm 17 21 mph 1004.8mb 50f
6:36pm 18 21 mph 1004.8mb 50f
6:30pm 15 20 mph 1004.8mb 50f
6:24pm 15 18 mph 1004.9mb 50f
6:18pm 17 22 mph 1004.8mb 50f
6:12pm 20 22 mph 1004.9mb 51f
6:06pm 17 20 mph 1004.9mb 50f
6:00pm 16 20 mph 1004.9mb 50f
5:54pm 18 21 mph 1005mb 50f
5:48pm 15 21 mph 1005.4mb 50f
5:42pm 14 20 mph 1005.5mb 49f
5:30pm 15 17 mph 1005.5mb 49f
5:24pm 13 17 mph 1005.5mb 49f
5:18pm 15 18 mph 1005.7mb 49f
5:12pm 18 22 mph 1005.8mb 49f
5:06pm 17 22 mph 1005.8mb 49f
5:00pm 16 18 mph 1005.8mb 49f
4:54pm 17 21 mph 1005.8mb 49f
4:48pm 17 20 mph 1005.8mb 49f
4:42pm 15 20 mph 1005.9mb 49f
4:36pm 16 20 mph 1006mb 49f
4:30pm 17 20 mph 1006.1mb 49f
4:24pm 18 25 mph 1006.3mb 49f
4:18pm 18 23 mph 1006.3mb 49f
4:12pm 20 22 mph 1006.3mb 50f
4:06pm 16 21 mph 1006.3mb 50f
4:00pm 18 23 mph 1006.2mb 50f
3:54pm 18 22 mph 1006.2mb 50f
3:48pm 21 26 mph 1006.4mb 50f
3:42pm 18 25 mph 1006.5mb 50f
3:36pm 18 23 mph 1006.5mb 50f
3:30pm 18 24 mph 1006.8mb 50f
3:24pm 16 25 mph 1006.6mb 50f
3:18pm 18 21 mph 1006.7mb 50f
3:12pm 15 22 mph 1006.7mb 50f
3:06pm 20 23 mph 1006.8mb 51f
3:00pm 18 26 mph 1006.7mb 51f
2:54pm 20 24 mph 1006.7mb 51f
2:48pm 20 28 mph 1006.8mb 51f
2:42pm 17 22 mph 1006.8mb 51f
2:36pm 18 23 mph 1006.9mb 51f
2:30pm 18 24 mph 1007mb 51f
2:24pm 22 25 mph 1007mb 52f
2:18pm 18 23 mph 1007.3mb 52f
2:12pm 17 22 mph 1007.3mb 52f
2:06pm 17 23 mph 1007.5mb 52f
2:00pm 20 24 mph 1007.5mb 52f
1:54pm 18 25 mph 1007.6mb 52f
1:48pm 18 24 mph 1007.7mb 52f
1:42pm 20 23 mph 1007.8mb 53f
1:36pm 20 23 mph 1007.8mb 52f
1:30pm 17 25 mph 1007.9mb 52f
1:24pm 16 22 mph 1008.1mb 52f
1:18pm 16 18 mph 1008.1mb 52f
1:12pm 16 21 mph 1008.3mb 51f
1:06pm 17 21 mph 1008.5mb 51f
1:00pm 17 21 mph 1008.6mb 51f
12:54pm 18 22 mph 1008.7mb 51f
12:48pm 18 26 mph 1008.8mb 51f
12:42pm 17 23 mph 1008.9mb 51f
12:36pm 18 22 mph 1009mb 51f
12:30pm 17 20 mph 1009.1mb 51f
12:24pm 14 17 mph 1009mb 51f
12:18pm 15 21 mph 1008.9mb 51f
12:12pm 16 18 mph 1008.9mb 51f
12:06pm 15 18 mph 1009mb 51f
12:00pm 14 18 mph 1009.1mb 51f
11:54am 15 18 mph 1009.2mb 51f
11:42am 13 22 mph 1009.3mb 50f
11:36am 13 14 mph 1009.3mb 49f
11:30am 13 14 mph 1009.4mb 49f
11:24am 10 14 mph 1009.5mb 49f
11:18am 11 14 mph 1009.6mb 49f
11:12am 13 15 mph 1009.6mb 49f
11:06am 13 14 mph 1009.8mb 49f
11:00am 13 14 mph 1010mb 48f
10:54am 13 14 mph 1010.1mb 48f
10:48am 13 14 mph 1010.2mb 48f
10:42am 13 14 mph 1010.3mb 48f
10:36am 13 14 mph 1010.4mb 48f
10:30am 13 14 mph 1010.5mb 48f
10:24am 13 14 mph 1010.5mb 48f
10:18am 13 14 mph 1010.6mb 48f
10:06am 13 14 mph 1010.9mb 48f
10:00am 13 14 mph 1010.9mb 48f
9:54am 11 14 mph 1011mb 47f
9:48am 13 14 mph 1011mb 47f
9:42am 13 14 mph 1010.9mb 47f
9:36am 13 14 mph 1011mb 47f
9:30am 11 13 mph 1011.2mb 47f
9:24am 11 14 mph 1011.2mb 47f
9:18am 14 16 mph 1011.2mb 47f
9:12am 15 16 mph 1011.1mb 47f
9:06am 13 15 mph 1011.3mb 47f
9:00am 13 15 mph 1011.4mb 48f
8:54am 14 16 mph 1011.3mb 47f
8:48am 13 16 mph 1011.3mb 47f
8:42am 14 16 mph 1011.4mb 47f
8:36am 14 16 mph 1011.4mb 47f
8:30am 14 15 mph 1011.4mb 47f
8:24am 13 15 mph 1011.5mb 47f
8:18am 14 16 mph 1011.4mb 47f
8:12am 14 15 mph 1011.4mb 47f
8:06am 14 16 mph 1011.5mb 47f
8:00am 13 15 mph 1011.5mb 47f
7:54am 13 15 mph 1011.6mb 47f
7:48am 11 14 mph 1011.8mb 47f
7:42am 11 14 mph 1011.9mb 47f
7:36am 11 14 mph 1012mb 47f
7:30am 11 13 mph 1012mb 47f
7:24am 10 11 mph 1012.2mb 47f
7:18am 11 13 mph 1012.3mb 47f
7:12am 11 13 mph 1012.3mb 47f
7:06am 11 13 mph 1012.2mb 46f
7:00am 10 13 mph 1012.2mb 46f
6:54am 10 13 mph 1012.3mb 46f
6:48am 11 13 mph 1012.4mb 46f
6:42am 10 11 mph 1012.5mb 46f
6:36am 10 11 mph 1012.6mb 46f
6:30am 9 10 mph 1012.9mb 47f
6:24am 10 13 mph 1012.8mb 47f
6:18am 11 13 mph 1012.6mb 47f
6:12am 9 10 mph 1012.6mb 47f
6:06am 9 10 mph 1012.6mb 47f
6:00am 9 10 mph 1012.5mb 47f
5:54am 9 10 mph 1012.5mb 47f
5:48am 9 10 mph 1012.6mb 47f
5:42am 9 10 mph 1012.6mb 47f
5:30am 8 10 mph 1012.6mb 47f
5:24am 8 9 mph 1012.5mb 47f